Погода в Каргале

Россия / Томская область     56°37′11″N   83°57′29″E
темп.,
°C
ветер,
м/с
пор.,
м/с
влажн.,
%
обл.,
%
осадки,
мм/ч
давл.,
гПа
погр.,
м
13 августа, сб
сб1301:00+12всв22815 0.0 101111
04:00+10в11810 0.0 101010
07:00+11вюв11800 0.0 100914
10:00+19ю12530 0.0 1008419
13:00+23юз2441100 0.0 10061308
16:00+25зюз354060 0.0 10041703
19:00+22з4758100 0.0 1003516
22:00+16зюз23933 1.4 100463
14 августа, вс
вс1401:00+13юз389522 1.5 1003148
04:00+13ююз4119399 0.0 1001258
07:00+13ююз4109791 3.0 1001406
10:00+14юз51096100 1.3 1000890
13:00+14зюз61090100 2.7 10011064
16:00+16з71279100 0.5 10021427
19:00+14з51085100 1.0 1004996
22:00+11зюз379485 0.1 1005194
15 августа, пн
пн1501:00+10зюз3109692 0.1 1005307
04:00+11з499483 0.4 1005529
07:00+9з4109768 0.4 1006497
10:00+13з587179 0.0 10071040
13:00+12з697092 0.5 10081195
16:00+13зсз61161100 0.1 10081604
19:00+12зсз51165100 0.3 10091469
22:00+10зсз51174100 0.1 10091405
16 августа, вт
вт1601:00+7з51096100 2.0 1009828
04:00+7з51197100 2.4 1009799
07:00+7з51197100 4.0 1009733
10:00+7з51197100 1.8 1010699
13:00+8з51095100 2.1 1010742
16:00+8зсз41196100 1.3 1012715
19:00+8зсз31096100 1.7 1012546
22:00+8з2696100 0.3 1013209
17 августа, ср
ср1701:00+8зюз2594100 0.3 1012129
04:00+8юз2494100 0.0 101197
07:00+8юз249195 0.0 101193
10:00+12юз3472100 0.0 1011464
13:00+15юз3447100 0.0 10101766
16:00+15ююз2451100 0.0 10091710
19:00+11з3579100 0.1 1009282
22:00+9ююв2493100 0.2 1009129